Location: Aciu?a
(46.2833°N, 22.4500°E)
Time: 06:05:06
(UTC+00:00)

CZ-4C R/B - Pass Details

Date: 25 October 2021
Orbit: 403 x 482 km, 97.7° (Epoch: 04 December)

Event Time Altitude Azimuth Distance (km) Brightness Sun altitude
Rises 16:21:16 0° 22° (NNE) 2,452 6.3 -10.1°
Reaches altitude 10° 16:23:30 10° 33° (NNE) 1,560 5.3 -10.5°
Maximum altitude 16:26:29 30° 97° (E) 796 3.6 -11.0°
Drops below altitude 10° 16:29:23 10° 161° (SSE) 1,508 5.4 -11.5°
Sets 16:31:30 0° 172° (S) 2,354 6.5 -11.8°
